GFSNGP_850_temp_237.txt.gz
Temp
8 8 8 9 9 10 10 10 8 10 11 13 14 14 14 13 13 13 13 13 12 13 13 13 13 12 12 12 11 11 11 12 12 13 14 14 14 14 14 14 13 13 13 13
4 7 9 9 9 10 10 10 11 11 11 14 14 14 14 13 13 13 13 13 12 12 12 12 12 12 12 11 11 11 11 11 11 11 14 13 12 12 13 12 12 13 13 13
4 8 7 6 8 10 10 11 11 10 12 14 14 14 13 13 13 12 12 12 12 12 12 12 12 11 11 11 11 11 11 11 10 11 11 13 12 12 12 13 13 13 13 13
4 5 4 9 11 10 9 10 11 12 12 13 13 12 12 12 12 12 12 11 11 11 11 11 11 10 10 11 11 11 11 11 10 9 9 12 11 11 11 11 12 12 12 12
3 5 7 9 10 10 10 10 12 12 12 12 12 11 11 12 11 10 9 10 10 10 10 9 9 9 10 10 10 10 11 11 10 10 9 10 11 11 10 10 10 10 11 11
4 3 5 9 11 10 10 8 12 12 11 11 10 9 11 10 9 8 8 8 8 9 9 8 8 9 9 9 9 9 10 10 10 9 9 9 11 10 10 9 9 9 9 9
4 4 6 10 10 10 6 8 9 9 9 9 9 9 8 8 8 8 8 8 8 8 8 8 8 8 8 9 9 9 9 9 8 8 8 8 10 10 9 8 8 7 7 8
3 4 5 9 9 6 8 8 8 8 8 7 7 7 7 7 8 8 8 8 8 8 8 8 8 8 8 8 9 8 8 8 7 7 7 7 9 9 8 7 7 7 6 7
5 5 8 7 8 8 8 7 7 7 7 6 6 7 7 7 7 7 8 8 8 8 8 8 8 8 8 8 8 8 7 6 6 7 7 7 8 9 8 6 7 7 5 5
6 7 8 7 7 7 7 6 6 6 6 6 6 6 6 6 6 7 7 8 8 8 8 8 8 8 8 8 7 7 6 6 5 7 7 7 7 7 7 5 6 6 6 5
5 6 6 6 6 6 6 6 6 5 5 5 5 5 5 5 6 6 6 7 8 8 8 8 8 8 7 7 7 6 6 6 5 4 5 6 7 7 6 5 5 6 6 6
5 6 6 6 6 6 6 6 5 4 4 4 3 3 3 4 4 4 5 5 6 7 7 7 7 7 7 7 7 7 6 5 5 4 3 4 6 5 3 4 4 4 4 5
6 6 6 6 6 6 5 4 4 3 3 2 1 1 1 1 0 1 2 3 4 4 4 4 4 4 5 4 5 5 5 5 5 3 2 4 5 4 3 1 2 2 2 2
6 6 5 5 5 5 4 4 3 2 1 1 1 0 -1 -1 -1 -1 -0 -0 0 1 1 1 1 2 3 3 2 2 2 3 4 3 3 3 3 2 2 2 1 -1 -1 1
6 6 5 4 4 4 3 2 1 1 1 0 -1 -2 -2 -2 -2 -2 -2 -1 -1 -1 -1 -1 -1 -0 0 1 1 2 1 2 3 3 3 2 1 1 1 -0 -1 -1 -3 -2
5 4 3 3 1 1 1 -0 -1 -1 -1 -2 -2 -2 -2 -2 -3 -3 -2 -2 -3 -3 -2 -2 -1 -1 0 1 2 2 1 1 2 2 2 1 0 -0 -0 -1 -2 -2 -2 -2
3 3 1 0 0 -0 -1 -2 -2 -2 -2 -2 -2 -3 -3 -4 -3 -3 -4 -3 -3 -3 -3 -2 -2 -2 -1 -0 0 -0 0 0 0 0 0 -0 -1 -2 -1 -2 -2 -2 -3 -2
2 0 -1 -1 -1 -2 -2 -2 -2 -3 -3 -2 -3 -4 -4 -4 -4 -4 -4 -4 -4 -4 -3 -3 -3 -2 -2 -2 -1 -1 -1 -1 -2 -1 -2 -2 -3 -3 -3 -3 -3 -3 -4 -4
1 -0 -1 -1 -2 -2 -3 -3 -3 -3 -2 -2 -3 -3 -4 -4 -4 -4 -4 -4 -4 -4 -4 -4 -4 -3 -3 -3 -3 -3 -3 -3 -3 -3 -3 -3 -3 -4 -4 -4 -4 -4 -4 -5
1 -0 -1 -1 -3 -3 -3 -3 -3 -2 -2 -2 -2 -2 -3 -3 -3 -3 -4 -4 -5 -5 -4 -4 -4 -4 -4 -4 -4 -4 -4 -3 -3 -4 -4 -4 -4 -4 -5 -5 -4 -4 -3 -4
-1 -1 -2 -2 -2 -2 -3 -3 -3 -2 -2 -2 -2 -3 -3 -3 -3 -2 -3 -3 -3 -3 -3 -4 -4 -5 -5 -5 -4 -4 -4 -4 -4 -4 -4 -5 -5 -5 -5 -4 -4 -5 -5 -5
-2 -2 -2 -2 -2 -2 -3 -3 -3 -2 -2 -2 -2 -2 -3 -3 -3 -3 -3 -3 -3 -3 -3 -3 -4 -4 -4 -5 -5 -5 -5 -5 -5 -5 -5 -5 -5 -5 -5 -5 -5 -5 -4 -4
-1 -2 -2 -2 -2 -2 -2 -3 -3 -3 -2 -2 -2 -2 -2 -2 -2 -2 -3 -3 -3 -3 -4 -4 -4 -3 -4 -4 -4 -5 -5 -5 -5 -5 -5 -5 -5 -4 -4 -5 -4 -5 -4 -5
-2 -2 -2 -3 -2 -2 -3 -2 -3 -3 -3 -2 -2 -2 -2 -2 -3 -4 -4 -4 -4 -4 -4 -4 -4 -4 -4 -4 -4 -4 -4 -4 -5 -5 -5 -5 -4 -4 -4 -4 -4 -5 -5 -5
-3 -3 -2 -3 -2 -2 -2 -3 -2 -3 -3 -3 -2 -2 -2 -3 -3 -3 -4 -4 -5 -5 -5 -5 -5 -4 -4 -4 -4 -4 -4 -4 -4 -4 -4 -4 -4 -4 -4 -4 -5 -5 -5 -5
-2 -3 -3 -3 -2 -2 -3 -3 -3 -3 -3 -3 -3 -3 -3 -3 -3 -3 -4 -4 -4 -5 -5 -5 -5 -5 -4 -4 -4 -4 -4 -4 -4 -4 -3 -4 -4 -4 -4 -5 -5 -5 -5 -6
-2 -3 -3 -3 -2 -3 -3 -3 -4 -3 -3 -3 -3 -3 -3 -3 -3 -3 -4 -4 -5 -5 -5 -5 -5 -5 -5 -5 -4 -5 -4 -5 -4 -4 -4 -4 -5 -5 -5 -5 -6 -6 -6 -6

GFSNGP_850_temp_243.txt.gz
Temp
4 5 6 7 8 8 8 6 4 6 8 10 11 11 10 11 11 11 12 13 13 13 13 13 13 13 13 12 12 12 12 12 12 12 13 13 13 14 13 14 15 15 15 15
-1 5 6 5 6 7 8 8 8 8 8 9 12 12 13 10 10 10 9 9 10 12 12 13 12 12 12 12 11 11 11 11 11 11 11 11 11 12 13 13 13 14 15 14
-1 4 4 0 6 7 8 9 9 7 8 9 9 10 8 8 8 8 8 8 9 9 9 10 10 11 11 11 11 11 10 10 10 10 11 11 11 11 11 12 12 13 13 13
-2 2 -4 3 8 9 9 8 8 7 8 8 9 9 8 8 8 8 8 8 8 8 9 9 9 9 9 10 10 10 10 10 10 10 10 10 10 10 10 11 11 12 11 11
-2 -2 3 6 8 8 7 6 7 6 6 8 8 8 8 7 7 7 8 8 8 8 8 8 9 9 9 9 9 9 9 9 9 9 9 10 10 10 10 10 11 11 11 10
-4 0 2 6 7 7 7 4 7 7 7 7 7 4 5 7 7 7 7 7 7 7 8 8 8 8 9 9 9 9 9 9 8 9 9 9 9 9 9 9 10 10 11 11
-5 -4 2 6 7 7 3 3 6 7 7 7 5 5 6 6 6 6 6 6 6 7 7 7 7 8 8 8 8 8 8 8 8 8 8 8 8 8 8 8 9 9 9 10
-3 -5 -2 5 5 4 5 6 6 7 7 6 6 6 6 6 6 5 5 5 5 6 6 6 6 7 7 7 7 8 8 8 8 8 8 8 8 8 8 8 7 7 8 9
2 0 4 6 5 6 7 7 7 7 7 7 7 7 6 6 5 5 5 4 4 5 5 5 5 5 6 7 7 7 8 8 8 8 8 8 8 7 7 7 7 7 7 7
1 4 4 5 6 6 6 6 6 7 7 6 5 5 5 5 5 4 3 3 3 3 3 3 3 4 4 4 5 6 7 8 8 8 8 8 7 7 7 7 6 6 6 6
2 3 4 5 5 6 6 6 6 6 6 5 5 4 4 3 3 2 2 1 1 1 2 2 2 2 1 2 3 4 5 5 5 7 8 8 7 7 7 6 6 6 6 5
1 4 4 4 5 5 5 5 4 3 3 3 3 2 2 1 1 1 0 -0 -1 -1 -1 -1 -0 -0 -0 -0 1 2 3 3 4 5 5 5 6 6 6 6 5 5 5 5
4 5 4 5 5 4 3 3 2 2 1 1 0 -0 -0 -1 -1 -1 -2 -3 -2 -3 -3 -2 -2 -2 -2 -2 -1 -1 0 2 3 4 4 4 4 4 4 4 4 5 5 5
4 5 4 4 3 3 2 1 1 0 -0 -1 -1 -1 -2 -2 -2 -3 -3 -3 -3 -3 -3 -3 -3 -3 -3 -3 -3 -3 -3 -2 -1 0 1 2 3 3 3 3 3 4 4 4
4 5 4 3 3 2 1 -0 -1 -1 -2 -2 -2 -2 -2 -3 -3 -3 -4 -4 -4 -4 -4 -4 -5 -4 -4 -4 -4 -4 -4 -3 -2 -2 -0 -0 0 1 2 2 2 3 3 3
5 4 3 2 1 0 0 -0 -2 -2 -3 -3 -3 -3 -3 -3 -3 -4 -4 -4 -4 -4 -4 -5 -5 -5 -5 -4 -4 -4 -3 -3 -2 -2 -1 -1 -0 0 1 1 1 1 2 3
4 3 2 1 0 -1 -1 -1 -2 -3 -3 -4 -4 -3 -3 -2 -2 -2 -2 -3 -3 -3 -4 -4 -5 -4 -5 -5 -5 -4 -4 -4 -3 -2 -1 -1 -0 0 1 1 1 1 1 1
3 3 2 1 -0 -1 -1 -3 -3 -3 -4 -3 -3 -3 -2 -3 -3 -3 -3 -3 -3 -3 -3 -4 -4 -4 -4 -5 -5 -4 -4 -4 -3 -2 -1 -0 -0 -0 0 0 0 0 0 0
2 2 1 0 -1 -2 -3 -3 -3 -3 -3 -3 -2 -2 -2 -3 -3 -3 -3 -3 -4 -5 -4 -4 -4 -4 -4 -4 -5 -5 -4 -4 -4 -3 -2 -2 -2 -2 -1 -1 -1 -1 -1 -1
2 1 0 -1 -2 -3 -3 -3 -3 -3 -3 -3 -2 -2 -2 -2 -3 -3 -4 -4 -5 -5 -5 -5 -4 -4 -5 -5 -5 -5 -5 -4 -4 -4 -3 -3 -3 -3 -2 -2 -2 -2 -3 -3
0 -0 -0 -1 -2 -2 -3 -3 -3 -3 -2 -3 -3 -3 -2 -2 -3 -3 -4 -4 -4 -5 -5 -5 -5 -4 -5 -5 -5 -5 -5 -5 -4 -4 -4 -4 -3 -3 -3 -3 -4 -4 -4 -5
0 -0 -0 -1 -2 -3 -3 -3 -3 -2 -2 -3 -3 -3 -3 -3 -3 -4 -5 -5 -5 -5 -5 -5 -5 -4 -5 -5 -5 -5 -5 -5 -5 -5 -4 -4 -4 -4 -4 -4 -5 -5 -5 -5
-0 -0 -0 -1 -2 -3 -2 -2 -2 -3 -3 -3 -3 -3 -3 -3 -4 -4 -5 -5 -5 -5 -5 -6 -5 -4 -4 -5 -5 -5 -5 -5 -5 -5 -5 -5 -5 -5 -5 -5 -5 -5 -5 -5
-0 -1 -1 -1 -1 -2 -2 -2 -2 -3 -3 -3 -3 -3 -3 -3 -3 -4 -4 -4 -5 -5 -6 -6 -5 -5 -5 -5 -5 -5 -5 -5 -5 -5 -5 -5 -5 -5 -5 -6 -6 -5 -5 -5
-1 -1 -1 -1 -1 -1 -1 -2 -2 -3 -3 -4 -4 -3 -3 -3 -4 -4 -4 -4 -4 -6 -5 -6 -6 -5 -6 -5 -5 -5 -6 -6 -6 -6 -6 -6 -6 -6 -6 -6 -5 -5 -5 -4
-2 -2 -2 -2 -1 -1 -2 -2 -2 -3 -3 -4 -4 -4 -3 -3 -4 -4 -4 -4 -4 -6 -6 -6 -6 -6 -6 -6 -5 -5 -6 -6 -6 -6 -6 -6 -5 -6 -6 -5 -5 -5 -5 -5
-3 -3 -2 -2 -2 -2 -2 -2 -2 -2 -3 -4 -4 -4 -4 -3 -4 -4 -4 -4 -5 -5 -6 -6 -6 -6 -6 -6 -6 -5 -5 -6 -6 -6 -6 -6 -5 -5 -5 -5 -5 -5 -5 -5

GFSNGP_850_temp_246.txt.gz
Temp
3 4 4 5 5 5 6 5 3 6 7 8 8 9 8 8 8 8 7 7 8 9 9 10 11 11 12 12 12 12 12 12 12 12 11 12 13 13 13 13 14 14 15 15
-4 3 4 4 4 5 6 7 7 7 6 7 8 8 8 8 8 8 7 8 8 8 8 9 9 9 9 10 10 11 11 11 11 11 11 10 11 11 12 13 13 13 14 14
-3 3 3 1 5 6 6 6 6 4 5 7 7 7 7 7 7 7 7 7 8 8 8 8 8 8 8 9 9 9 10 10 10 10 10 10 10 10 10 10 11 12 12 13
-4 0 -4 3 6 7 6 5 6 6 6 7 7 7 7 7 7 7 7 7 7 7 7 8 8 8 9 9 9 9 9 9 9 9 9 10 9 9 9 9 9 10 11 11
-4 -3 2 5 5 5 5 5 5 5 5 6 7 7 6 7 6 6 6 6 6 7 7 7 7 7 7 8 8 8 8 8 9 9 9 9 9 9 9 9 9 9 9 10
-7 -4 -2 4 5 6 6 2 6 5 5 5 6 2 3 6 6 6 6 6 6 6 6 6 6 6 7 7 7 8 8 8 8 8 8 8 8 8 8 8 8 8 8 9
-9 -5 1 4 5 6 1 2 6 6 6 6 4 5 6 6 6 6 5 5 5 5 5 5 5 5 6 6 6 6 7 7 7 8 8 8 8 8 8 8 8 8 8 8
-5 -7 -2 4 4 4 4 5 5 6 6 6 6 6 6 6 5 5 5 4 4 4 4 4 4 4 4 5 5 5 5 6 6 7 7 8 8 8 8 8 8 7 7 7
-0 -0 3 5 4 5 5 5 5 5 6 5 5 5 5 5 4 4 4 3 3 3 3 3 2 2 2 3 3 4 4 5 5 5 6 7 7 8 8 8 7 7 7 7
1 2 3 4 5 5 5 4 5 4 4 4 3 3 3 3 3 2 2 2 1 1 1 1 0 0 0 0 1 0 1 2 4 4 4 6 6 7 7 8 7 7 7 7
-0 2 3 4 4 4 4 4 4 3 3 2 2 2 1 1 0 0 -0 -1 -1 -1 -1 -2 -1 -2 -1 -1 -1 -1 -1 -0 1 2 3 3 4 5 6 6 7 7 7 6
-1 3 2 3 4 3 3 2 2 1 2 1 -0 -1 -1 -1 -1 -2 -2 -2 -2 -3 -3 -3 -3 -3 -3 -3 -3 -2 -2 -2 -1 -1 0 2 3 4 4 5 6 6 6 6
2 3 3 4 3 3 2 1 1 0 -1 -1 -1 -2 -1 -2 -2 -3 -3 -3 -3 -3 -3 -4 -4 -4 -4 -4 -4 -4 -3 -3 -3 -3 -3 -1 1 2 3 4 4 5 5 5
3 3 3 3 2 2 1 1 -0 -1 -2 -3 -3 -2 -3 -3 -3 -3 -3 -3 -3 -3 -3 -3 -4 -4 -4 -5 -6 -6 -5 -5 -5 -4 -3 -3 -2 -1 -0 1 2 3 4 4
4 4 4 3 2 1 0 -0 -0 -1 -3 -3 -4 -4 -3 -3 -3 -2 -3 -3 -3 -3 -3 -3 -3 -3 -4 -5 -6 -6 -6 -5 -4 -4 -4 -4 -3 -3 -2 -1 0 1 2 3
3 3 3 3 1 1 -0 -0 -1 -3 -3 -4 -4 -4 -4 -3 -3 -3 -3 -3 -4 -3 -4 -4 -3 -4 -4 -5 -6 -6 -6 -5 -5 -5 -4 -4 -3 -3 -2 -2 -1 -0 -0 1
4 3 3 1 0 -0 -1 -2 -3 -3 -3 -4 -4 -3 -3 -2 -2 -2 -3 -3 -3 -4 -4 -4 -4 -4 -4 -5 -6 -6 -6 -5 -5 -5 -4 -4 -3 -3 -2 -1 -1 -0 0 0
3 3 2 1 0 -1 -2 -3 -3 -3 -3 -4 -3 -3 -2 -2 -2 -3 -4 -4 -3 -3 -4 -4 -5 -4 -4 -4 -5 -5 -5 -5 -5 -5 -4 -4 -3 -2 -2 -1 -1 -0 0 0
2 1 1 -0 -1 -1 -3 -3 -3 -3 -3 -3 -3 -3 -3 -3 -3 -3 -4 -4 -4 -4 -4 -4 -5 -5 -4 -4 -5 -5 -5 -5 -5 -4 -4 -4 -3 -2 -2 -1 -1 -1 -1 -1
1 1 0 -0 -1 -2 -3 -3 -3 -3 -3 -3 -3 -3 -3 -3 -3 -3 -4 -5 -5 -6 -5 -5 -6 -5 -4 -5 -5 -5 -5 -5 -5 -5 -4 -4 -4 -4 -3 -3 -2 -2 -2 -2
0 -0 -0 -0 -1 -2 -2 -2 -2 -2 -3 -3 -3 -3 -4 -3 -4 -3 -4 -4 -4 -5 -5 -6 -5 -5 -4 -5 -5 -5 -5 -5 -5 -5 -5 -4 -4 -4 -4 -4 -3 -3 -3 -4
-0 -0 -1 -1 -1 -1 -1 -2 -2 -2 -3 -3 -3 -3 -4 -3 -4 -4 -4 -5 -5 -5 -6 -6 -6 -5 -5 -5 -5 -5 -5 -5 -5 -5 -5 -5 -5 -5 -5 -4 -4 -5 -5 -5
-0 -1 -1 -1 -1 -1 -1 -1 -2 -2 -2 -3 -4 -4 -4 -4 -4 -4 -4 -4 -4 -5 -6 -6 -6 -6 -5 -5 -5 -5 -5 -6 -6 -5 -5 -5 -5 -5 -5 -5 -5 -5 -5 -5
-1 -1 -2 -2 -2 -2 -2 -2 -2 -2 -3 -3 -4 -4 -4 -3 -4 -4 -5 -5 -5 -6 -6 -6 -6 -6 -5 -5 -6 -5 -6 -6 -6 -6 -6 -5 -5 -5 -5 -5 -5 -5 -5 -5
-2 -2 -3 -3 -3 -3 -2 -2 -2 -2 -3 -3 -4 -4 -4 -4 -4 -4 -4 -4 -5 -6 -6 -6 -6 -6 -5 -5 -6 -6 -6 -6 -6 -6 -6 -6 -6 -6 -6 -6 -6 -5 -5 -5
-3 -4 -4 -3 -3 -3 -3 -3 -3 -2 -2 -3 -3 -3 -3 -4 -4 -4 -4 -5 -5 -6 -6 -6 -7 -7 -6 -6 -6 -6 -6 -6 -6 -6 -6 -6 -6 -6 -6 -6 -6 -5 -5 -5
-4 -4 -5 -4 -4 -4 -4 -4 -3 -3 -3 -3 -3 -3 -3 -4 -4 -4 -5 -6 -6 -6 -7 -6 -6 -6 -7 -7 -6 -6 -6 -6 -6 -6 -6 -6 -6 -6 -6 -6 -6 -5 -5 -5

GFSNGP_850_temp_252.txt.gz
Temp
2 2 2 2 2 2 4 4 3 4 3 4 5 5 6 6 6 5 5 5 5 5 5 5 6 6 7 7 7 7 8 8 8 9 9 9 10 10 10 10 10 10 11 11
-4 2 2 3 3 3 3 4 4 4 4 4 6 6 6 6 6 6 5 5 4 5 5 5 5 5 5 5 6 6 7 7 8 8 8 8 8 9 10 10 10 10 10 10
-4 1 1 -1 3 3 3 3 4 4 4 4 5 6 6 6 6 6 6 6 5 5 5 5 5 4 5 5 5 5 5 5 7 8 8 8 8 8 8 9 10 10 10 10
-5 -0 -2 2 4 5 3 4 3 4 3 4 4 5 5 6 6 6 6 6 5 5 5 5 4 4 4 4 4 4 5 5 5 5 7 7 7 7 8 8 8 8 9 9
-5 -5 1 3 4 4 4 4 4 4 3 4 4 4 5 6 6 5 5 5 5 5 4 4 4 3 3 4 4 4 4 4 4 4 5 5 5 6 6 7 8 8 8 8
-10 -5 -4 3 3 4 4 1 4 3 3 2 3 1 1 5 4 5 5 5 4 4 4 4 4 3 3 2 2 2 2 2 3 3 4 4 4 4 5 5 7 7 8 8
-11 -6 -0 2 4 4 -0 1 4 4 3 3 1 3 3 3 3 4 4 4 4 3 3 3 3 2 2 2 2 2 2 2 2 1 2 2 3 3 4 5 5 6 7 7
-7 -8 -3 3 4 3 3 4 4 3 3 2 3 3 2 2 2 1 1 2 2 2 2 1 1 1 0 0 -0 -0 0 -1 -1 -1 -0 0 1 1 2 3 4 5 5 6
-1 -1 2 3 4 3 3 3 3 2 2 2 2 1 1 1 1 -0 -1 -2 -2 -1 -1 -0 -1 -2 -2 -1 -1 -2 -1 -1 -1 -2 -2 -2 -2 -1 0 1 2 3 3 5
1 1 1 3 3 4 3 3 3 2 1 1 1 1 0 -1 -1 -2 -2 -2 -3 -3 -3 -3 -2 -1 -1 -2 -2 -2 -2 -1 -1 -1 -2 -1 -2 -2 -2 -2 -1 1 2 3
-1 0 2 3 3 3 3 3 2 2 1 -0 -1 -1 -2 -2 -3 -3 -2 -3 -3 -3 -3 -2 -2 -2 -2 -2 -2 -2 -2 -2 -2 -2 -3 -3 -3 -4 -4 -3 -3 -2 -1 -1
-1 2 2 3 3 3 3 2 1 1 0 -0 -1 -3 -3 -3 -4 -3 -3 -3 -3 -3 -3 -3 -3 -4 -4 -4 -5 -5 -5 -5 -6 -5 -5 -5 -5 -3 -3 -4 -4 -4 -3 -2
2 3 2 3 2 2 2 1 0 -0 -1 -1 -3 -3 -3 -3 -4 -3 -3 -3 -3 -3 -4 -4 -4 -4 -4 -6 -5 -6 -6 -6 -6 -6 -6 -6 -6 -5 -6 -4 -4 -5 -4 -3
2 2 2 3 3 2 1 1 0 -0 -1 -3 -3 -4 -4 -4 -3 -3 -3 -3 -4 -3 -4 -4 -3 -5 -5 -5 -6 -6 -6 -6 -6 -7 -6 -6 -6 -6 -6 -6 -6 -5 -5 -5
2 2 2 2 2 1 1 1 1 -1 -3 -3 -4 -4 -4 -4 -4 -3 -3 -3 -4 -4 -4 -4 -4 -4 -6 -6 -6 -6 -6 -6 -6 -6 -6 -6 -6 -6 -6 -6 -6 -5 -4 -3
1 2 2 2 1 1 1 0 -0 -2 -4 -4 -4 -4 -4 -4 -4 -3 -3 -3 -4 -4 -4 -5 -6 -6 -6 -6 -6 -6 -5 -6 -7 -6 -6 -6 -6 -6 -6 -6 -5 -6 -5 -4
1 1 1 1 1 1 1 -0 -1 -3 -3 -3 -4 -4 -4 -4 -3 -3 -3 -3 -4 -4 -5 -5 -6 -6 -6 -6 -6 -6 -5 -5 -7 -6 -6 -7 -6 -5 -6 -6 -6 -6 -5 -4
2 2 2 2 1 1 0 -0 -1 -2 -3 -3 -3 -4 -4 -4 -4 -4 -5 -4 -4 -4 -4 -5 -6 -6 -6 -6 -6 -5 -5 -6 -7 -7 -7 -7 -6 -6 -5 -5 -5 -5 -4 -4
2 2 2 1 1 0 -0 -1 -1 -1 -2 -2 -2 -3 -4 -4 -4 -4 -4 -4 -4 -5 -5 -4 -6 -6 -7 -6 -6 -6 -6 -6 -7 -6 -6 -6 -6 -5 -5 -5 -5 -4 -3 -3
1 1 1 0 -0 -0 -1 -1 -1 -2 -2 -2 -2 -3 -3 -4 -4 -5 -4 -4 -4 -5 -6 -6 -7 -7 -7 -6 -6 -6 -6 -6 -6 -6 -6 -6 -6 -5 -5 -5 -4 -4 -3 -3
0 -0 -1 -1 -1 -1 -1 -1 -2 -2 -2 -2 -2 -3 -3 -4 -4 -4 -4 -4 -4 -5 -5 -6 -7 -7 -7 -6 -5 -6 -6 -6 -6 -6 -6 -6 -6 -6 -5 -5 -5 -5 -4 -4
-1 -1 -1 -1 -1 -1 -1 -2 -3 -3 -3 -2 -2 -3 -3 -3 -3 -4 -4 -4 -5 -5 -6 -7 -7 -7 -7 -6 -6 -6 -6 -6 -6 -6 -6 -6 -6 -6 -6 -6 -5 -5 -5 -5
-1 -1 -1 -1 -2 -3 -3 -3 -3 -3 -3 -3 -3 -2 -3 -3 -3 -4 -4 -4 -5 -6 -6 -7 -7 -7 -7 -6 -6 -6 -6 -6 -6 -6 -7 -6 -6 -6 -6 -6 -6 -6 -5 -5
-1 -2 -2 -3 -4 -3 -3 -3 -3 -3 -3 -3 -3 -3 -3 -3 -3 -4 -4 -4 -5 -5 -6 -7 -7 -7 -7 -7 -6 -6 -6 -6 -6 -6 -7 -6 -6 -6 -6 -6 -6 -6 -6 -5
-2 -3 -4 -4 -4 -4 -4 -4 -4 -4 -4 -4 -3 -3 -3 -4 -4 -4 -4 -4 -5 -6 -6 -6 -7 -7 -7 -7 -7 -7 -6 -6 -6 -7 -6 -6 -6 -6 -6 -6 -6 -6 -6 -6
-4 -4 -4 -5 -5 -5 -5 -5 -5 -4 -5 -5 -4 -4 -4 -4 -4 -4 -5 -5 -5 -6 -6 -7 -7 -7 -7 -8 -7 -8 -7 -6 -6 -6 -6 -6 -6 -6 -6 -6 -6 -6 -6 -6
-4 -5 -5 -5 -5 -5 -5 -5 -5 -5 -5 -5 -5 -5 -5 -5 -5 -5 -5 -5 -5 -6 -6 -7 -7 -7 -8 -8 -8 -8 -7 -7 -6 -6 -6 -6 -6 -6 -6 -6 -6 -6 -6 -6

GFSNGP_850_temp_255.txt.gz
Temp
3 3 3 4 4 5 5 5 5 4 5 6 6 7 6 6 6 6 5 5 5 5 4 3 4 5 6 6 6 5 6 6 6 7 8 8 8 9 9 9 9 10 10 11
-0 3 3 4 5 5 6 5 5 5 5 6 6 6 6 6 6 6 6 5 5 5 5 5 4 3 4 4 4 5 5 5 6 6 7 6 7 7 8 8 9 9 9 9
2 2 3 3 5 5 5 5 5 5 5 5 6 6 5 5 6 5 5 5 5 5 4 4 4 4 4 4 4 3 4 4 4 5 5 6 6 6 6 7 8 8 8 8
1 2 3 5 5 5 5 5 5 5 5 5 5 5 4 5 5 4 4 4 4 4 4 3 3 3 3 3 4 4 3 3 3 3 4 4 5 5 6 6 6 7 7 8
2 2 3 4 5 5 5 5 5 5 5 4 4 4 6 4 4 3 2 3 3 3 3 3 3 3 3 3 2 3 3 4 4 3 3 3 4 4 4 5 5 6 6 7
-2 1 2 5 5 4 4 4 4 4 4 3 3 5 6 2 3 3 3 2 2 2 2 2 2 2 2 1 1 -0 -1 0 1 2 2 2 3 3 4 4 5 5 6 6
-2 2 3 5 4 3 4 5 4 3 3 3 4 3 2 2 2 2 2 2 2 2 1 -0 -0 -1 -2 -1 -1 -1 -1 -1 -0 0 0 1 2 2 2 3 4 4 4 6
-2 -0 2 3 4 5 5 4 4 3 3 2 2 2 1 1 0 -0 -0 0 1 -1 -2 -2 -2 -2 -1 -2 -2 -2 -1 -1 -1 -1 -1 -1 -1 1 0 1 2 3 3 4
2 4 3 3 4 4 3 3 3 3 2 2 1 0 -1 -2 -2 -2 -2 -2 -2 -2 -3 -3 -2 -2 -1 -1 -1 -1 -1 -1 -1 -1 -0 -0 -1 -1 -1 -1 -1 1 1 2
3 4 3 3 3 3 3 3 3 2 2 1 -0 -0 -2 -3 -3 -3 -3 -3 -3 -3 -3 -1 -1 -1 -1 -1 -2 -3 -3 -2 -2 -2 -2 -2 -1 -2 -3 -3 -4 -5 -4 -3
3 2 2 3 3 3 3 3 2 2 1 0 -0 -2 -3 -3 -3 -3 -3 -3 -3 -3 -3 -3 -3 -3 -3 -4 -4 -4 -4 -4 -3 -3 -3 -4 -4 -5 -5 -5 -5 -5 -5 -5
3 3 4 3 3 3 3 2 2 1 1 -0 -1 -3 -3 -3 -4 -4 -4 -3 -4 -4 -4 -4 -4 -4 -5 -5 -5 -5 -6 -6 -5 -5 -5 -5 -5 -4 -5 -5 -6 -6 -6 -6
3 3 2 3 3 3 2 2 1 1 -0 -1 -2 -4 -4 -4 -4 -4 -4 -3 -3 -3 -4 -4 -4 -5 -5 -6 -6 -6 -6 -6 -6 -6 -6 -6 -6 -6 -6 -5 -6 -6 -5 -5
2 2 2 2 2 2 2 1 1 0 -1 -2 -4 -4 -4 -4 -4 -4 -4 -4 -3 -3 -4 -4 -5 -5 -5 -6 -7 -6 -6 -6 -6 -6 -6 -6 -6 -6 -6 -6 -6 -6 -4 -5
2 2 2 2 2 1 1 1 1 0 -0 -2 -4 -4 -4 -4 -4 -4 -4 -3 -4 -4 -4 -4 -5 -5 -6 -6 -7 -6 -6 -6 -6 -7 -7 -6 -6 -6 -7 -6 -6 -6 -6 -4
2 2 1 1 1 1 1 1 1 0 -0 -2 -3 -3 -3 -4 -4 -4 -4 -4 -4 -4 -4 -5 -5 -6 -6 -7 -7 -6 -6 -6 -6 -7 -7 -6 -6 -7 -7 -6 -6 -6 -6 -6
0 0 1 1 1 1 1 1 1 0 -0 -2 -3 -3 -3 -3 -4 -4 -4 -5 -4 -4 -4 -5 -6 -6 -7 -7 -7 -7 -6 -6 -6 -7 -7 -7 -7 -7 -7 -6 -6 -6 -6 -6
1 2 2 3 2 1 1 0 -0 -1 -1 -2 -2 -3 -3 -3 -4 -4 -4 -5 -4 -4 -4 -6 -5 -6 -7 -7 -7 -6 -6 -5 -6 -7 -7 -7 -7 -6 -6 -6 -6 -6 -5 -4
2 2 2 2 1 0 -0 -0 -1 -1 -1 -2 -2 -2 -2 -3 -3 -4 -4 -4 -4 -4 -5 -6 -6 -6 -7 -7 -7 -6 -5 -6 -6 -6 -6 -6 -6 -6 -6 -6 -6 -5 -5 -4
1 1 1 1 0 -0 -1 -1 -1 -1 -2 -2 -2 -2 -2 -3 -3 -3 -4 -4 -4 -5 -5 -6 -6 -7 -7 -7 -7 -6 -6 -6 -6 -6 -6 -6 -6 -6 -6 -6 -6 -5 -5 -5
0 -0 0 -0 -0 -1 -1 -1 -2 -2 -2 -2 -3 -2 -3 -3 -3 -3 -4 -4 -4 -5 -5 -6 -6 -6 -7 -7 -7 -6 -6 -6 -6 -6 -6 -7 -7 -6 -6 -6 -6 -6 -5 -5
-0 -1 -1 -0 -1 -1 -2 -2 -3 -3 -3 -3 -3 -3 -3 -3 -3 -3 -3 -4 -4 -5 -5 -6 -6 -7 -7 -8 -8 -7 -6 -6 -6 -6 -7 -7 -7 -7 -6 -6 -6 -6 -6 -5
-1 -1 -0 -1 -1 -2 -3 -3 -3 -3 -3 -3 -3 -4 -3 -3 -3 -4 -4 -4 -4 -5 -5 -6 -7 -7 -7 -7 -8 -8 -7 -6 -6 -6 -7 -7 -7 -7 -6 -6 -6 -6 -6 -6
-1 -1 -2 -2 -3 -3 -3 -3 -3 -3 -3 -3 -4 -4 -4 -4 -4 -4 -4 -4 -4 -5 -6 -6 -7 -7 -8 -8 -8 -8 -7 -7 -6 -6 -7 -7 -7 -7 -6 -6 -6 -6 -6 -6
-2 -2 -3 -3 -3 -4 -4 -4 -4 -4 -3 -3 -3 -3 -4 -4 -5 -5 -5 -5 -5 -5 -6 -6 -7 -7 -7 -8 -8 -8 -8 -7 -6 -6 -6 -7 -7 -6 -6 -6 -6 -6 -6 -6
-3 -4 -4 -4 -5 -5 -5 -5 -4 -5 -5 -4 -4 -4 -4 -5 -5 -5 -5 -5 -5 -5 -6 -6 -6 -7 -7 -7 -8 -8 -8 -7 -6 -6 -6 -6 -6 -6 -6 -6 -6 -6 -6 -6
-4 -5 -5 -5 -5 -5 -5 -5 -6 -5 -6 -6 -6 -5 -5 -5 -5 -5 -5 -5 -5 -6 -6 -6 -6 -7 -7 -8 -8 -8 -8 -7 -7 -6 -6 -6 -6 -6 -6 -6 -6 -6 -6 -6